Location: Silverdale
(47.6506°N, 122.6941°W)
Time: 05:26:08
(UTC+00:00)

Altair - Pass Details

Date: 12 October 2022
Orbit: 1501 x 1682 km, 47.2° (Epoch: 04 December)

Event Time Altitude Azimuth Distance (km) Brightness Sun altitude
Rises 12:42:23 0° 259° (W) 4,742 - -18.1°
Reaches altitude 10° 12:45:24 10° 259° (W) 3,782 - -17.6°
Exits shadow 12:48:15 23° 259° (W) 2,914 8.3 -17.1°
Maximum altitude 12:55:06 86° 173° (S) 1,634 7.6 -16.0°
Drops below altitude 10° 13:05:11 10° 85° (E) 3,919 11.1 -14.3°
Sets 13:08:22 0° 86° (E) 4,920 12.2 -13.8°
